Leeds And Bradford, United Kingdom

11:27 PM GMT on November 24, 2017 (GMT +0000)
Leeds Bradford

Weather History for EGNM - October, 2013

Change the Weather History Date:

Monday, October 28, 2013

  Actual Average Record
Temperature  
Mean Temperature 46 °F -  
Max Temperature 49 °F 45 °F 64 °F (2014)
Min Temperature 42 °F 37 °F 30 °F (2008)
Degree Days  
Heating Degree Days 20    
Moisture  
Dew Point 44 °F    
Average Humidity 90    
Maximum Humidity 100    
Minimum Humidity 76    
Precipitation  
Precipitation 0.28 in - - ()
Sea Level Pressure  
Sea Level Pressure 29.15 in    
Wind  
Wind Speed 13 mph ()    
Max Wind Speed 25 mph    
Max Gust Speed 34 mph    
Visibility 6.1 miles    
Events Rain    
Averages and records for this station are not official NWS values.
T = Trace of Precipitation, MM = Missing Value Source: Averaged Metar Reports

Daily Weather History Graph

Daily Weather History Graph

Search for Another Location

Airport or City:

Trip Planner

Search our weather history database for the weather conditions in past years. The results will help you decide how hot, cold, wet, or windy it might be!

Date:

Astronomy

Oct. 28, 2013 Rise Set
Actual Time 6:59 AM GMT 4:40 PM GMT
Civil Twilight 6:22 AM GMT 5:17 PM GMT
Nautical Twilight 5:40 AM GMT 5:58 PM GMT
Astronomical Twilight 5:00 AM GMT 6:39 PM GMT
Moon No Moon Rise 2:03 PM GMT (10/28)
Length of Visible Light 10h 55m
Length of Day
9h 41m
Waning Crescent, 36% of the Moon is Illuminated
Oct 28
Waning Crescent
Nov 3
New
Nov 10
First Quarter
Nov 17
Full
Nov 25
Last Quarter

Hourly Weather History & Observations

Time (GMT) Temp. Windchill Dew Point Humidity Pressure Visibility Wind Dir Wind Speed Gust Speed Precip Events Conditions
12:00 AM 49 °F - 45 °F 80%  in - SW 19.6 mph - -  
12:20 AM 50.0 °F - 46.4 °F 87% 29.06 in - SW 17.3 mph - N/A   Clear
12:50 AM 50.0 °F - 44.6 °F 82% 29.06 in - SSW 15.0 mph - N/A   Clear
1:20 AM 50.0 °F - 44.6 °F 82% 29.06 in - South 10.4 mph - N/A   Clear
1:50 AM 48.2 °F - 44.6 °F 87% 29.03 in - SW 8.1 mph - N/A   Clear
2:50 AM 48.2 °F - 44.6 °F 87% 28.97 in 6.2 mi SW 9.2 mph - N/A Rain Light Rain
3:00 AM 48 °F - 43 °F 78%  in - SW 13.8 mph - -  
3:50 AM 46.4 °F 43.5 °F 46.4 °F 100% 28.94 in 6.2 mi West 5.8 mph - N/A Rain Light Rain
4:20 AM 46.4 °F 42.4 °F 44.6 °F 93% 28.94 in 6.2 mi West 8.1 mph - N/A Rain Light Rain
4:50 AM 46.4 °F 41.1 °F 46.4 °F 100% 28.91 in 6.2 mi West 11.5 mph - N/A   Partly Cloudy
5:20 AM 46.4 °F 41.9 °F 44.6 °F 93% 28.91 in 6.2 mi West 9.2 mph - N/A Rain Light Rain
5:50 AM 46.4 °F 41.9 °F 44.6 °F 93% 28.91 in 6.2 mi NW 9.2 mph - N/A Rain Light Rain
6:00 AM 46 °F - 45 °F 93%  in - West 15.0 mph - -  
6:20 AM 46.4 °F 41.9 °F 46.4 °F 100% 28.91 in 6.2 mi WNW 9.2 mph - N/A Rain Light Rain
6:50 AM 46.4 °F 41.1 °F 46.4 °F 100% 28.91 in 5.6 mi WNW 11.5 mph - N/A Rain Light Rain
7:20 AM 46.4 °F 41.5 °F 46.4 °F 100% 28.94 in 5.0 mi West 10.4 mph - N/A Rain Light Rain
7:50 AM 46.4 °F 41.5 °F 46.4 °F 100% 28.97 in 6.2 mi West 10.4 mph - N/A Rain Light Rain
8:20 AM 46.4 °F 41.1 °F 46.4 °F 100% 28.97 in 6.2 mi West 11.5 mph - N/A Rain Light Rain
8:50 AM 46.4 °F 40.7 °F 46.4 °F 100% 29.00 in 5.6 mi West 12.7 mph - N/A Rain Light Rain
9:20 AM 46.4 °F 41.1 °F 46.4 °F 100% 29.03 in 5.6 mi WSW 11.5 mph - N/A Rain Light Rain
9:50 AM 46.4 °F 41.1 °F 46.4 °F 100% 29.03 in 6.2 mi WSW 11.5 mph - N/A Rain Light Rain
10:20 AM 46.4 °F 39.8 °F 46.4 °F 100% 29.06 in 6.2 mi WSW 16.1 mph 28.8 mph N/A Rain Rain
10:50 AM 48.2 °F - 46.4 °F 93% 29.09 in 6.2 mi West 15.0 mph - N/A   Scattered Clouds
11:20 AM 48.2 °F - 44.6 °F 87% 29.09 in 6.2 mi West 16.1 mph - N/A   Scattered Clouds
11:50 AM 51.8 °F - 46.4 °F 82% 29.12 in 6.2 mi WSW 17.3 mph - N/A   Scattered Clouds
12:00 PM 48 °F - 45 °F 86%  in - West 24.2 mph - -  
12:20 PM 50.0 °F - 44.6 °F 82% 29.12 in 6.2 mi WSW 17.3 mph 28.8 mph N/A   Scattered Clouds
12:50 PM 48.2 °F - 44.6 °F 87% 29.12 in 6.2 mi West 19.6 mph 34.5 mph N/A   Scattered Clouds
1:20 PM 50.0 °F - 46.4 °F 87% 29.15 in 6.2 mi WSW 23.0 mph - N/A Rain Light Rain Showers
1:50 PM 50.0 °F - 46.4 °F 87% 29.18 in 6.2 mi WSW 18.4 mph - N/A Rain Light Rain Showers
2:20 PM 50.0 °F - 44.6 °F 82% 29.18 in 6.2 mi WSW 21.9 mph 33.4 mph N/A   Scattered Clouds
2:50 PM 48.2 °F - 44.6 °F 87% 29.21 in 6.2 mi WSW 17.3 mph - N/A Rain Light Rain Showers
3:00 PM 49 °F - 44 °F 76%  in - West 25.3 mph - -  
3:20 PM 50.0 °F - 44.6 °F 82% 29.21 in 6.2 mi WSW 19.6 mph - N/A   Scattered Clouds
3:50 PM 48.2 °F - 42.8 °F 82% 29.24 in 6.2 mi WSW 21.9 mph - N/A Rain Light Rain Showers
4:20 PM 48.2 °F - 44.6 °F 87% 29.24 in 6.2 mi WSW 17.3 mph - N/A   Scattered Clouds
4:50 PM 46.4 °F 40.1 °F 42.8 °F 87% 29.27 in 6.2 mi WSW 15.0 mph - N/A   Scattered Clouds
5:20 PM 46.4 °F 40.7 °F 42.8 °F 87% 29.27 in 6.2 mi WSW 12.7 mph - N/A   Scattered Clouds
5:50 PM 46.4 °F 40.1 °F 42.8 °F 87% 29.30 in 6.2 mi SW 15.0 mph - N/A Rain Light Rain Showers
6:00 PM 46 °F - 41 °F 78%  in - WSW 21.9 mph - -  
6:20 PM 46.4 °F 40.4 °F 42.8 °F 87% 29.33 in 6.2 mi SW 13.8 mph - N/A Rain Light Rain Showers
6:50 PM 44.6 °F 38.4 °F 42.8 °F 93% 29.33 in 6.2 mi SW 12.7 mph - N/A   Scattered Clouds
7:20 PM 44.6 °F 39.2 °F 41.0 °F 87% 29.33 in 6.2 mi WSW 10.4 mph - N/A Rain Light Rain Showers
7:50 PM 44.6 °F 38.4 °F 42.8 °F 93% 29.36 in 6.2 mi WSW 12.7 mph - N/A Rain Light Rain
8:20 PM 44.6 °F 39.2 °F 41.0 °F 87% 29.36 in 6.2 mi SW 10.4 mph - N/A Rain Light Rain
8:50 PM 42.8 °F 38.6 °F 41.0 °F 93% 29.36 in 6.2 mi WSW 6.9 mph - N/A   Scattered Clouds
9:00 PM 44 °F - 40 °F 79%  in - WSW 17.3 mph - -  
9:20 PM 42.8 °F 37.0 °F 41.0 °F 93% 29.36 in 6.2 mi SW 10.4 mph - N/A Rain Light Rain
9:50 PM 42.8 °F 36.2 °F 41.0 °F 93% 29.36 in 6.2 mi SW 12.7 mph - N/A   Partly Cloudy
10:20 PM 42.8 °F 37.5 °F 41.0 °F 93% 29.36 in 6.2 mi SW 9.2 mph - N/A   Scattered Clouds
10:50 PM 42.8 °F 37.0 °F 42.8 °F 100% 29.39 in 6.2 mi SW 10.4 mph - N/A Rain Light Rain
11:20 PM 44.6 °F 39.7 °F 42.8 °F 93% 29.39 in 6.2 mi SW 9.2 mph - N/A Rain Light Rain
11:50 PM 44.6 °F 40.2 °F 42.8 °F 93% 29.39 in 6.2 mi WSW 8.1 mph - N/A Rain Light Rain